Regional Weather Roundup
Issued by NWS

Home | Current Version | Previous Version | Text Only | Print | Product List | Glossary Off
Versions: 1 2 3 4 5 6 7 8 9 10 11 12 13 14 15 16 17 18 19 20 21 22 23 24 25 26 27 28 29 30 31 32 33 34 35 36 37 38 39 40 41 42 43 44 45 46 47 48 49 50

000
ASUS43 KDTX 310210
RWRMI
MICHIGAN HOURLY REGIONAL WEATHER ROUNDUP
NATIONAL WEATHER SERVICE DETROIT/PONTIAC MI
1000 PM EDT THU JUL 30 2015

NOTE: "FAIR" INDICATES FEW OR NO CLOUDS BELOW 12,000 FEET WITH NO
SIGNIFICANT WEATHER AND/OR OBSTRUCTION TO VISIBILITY.

MIZ047>049-052>055-059>063-066>070-074>076-081>083-310300-
SOUTHEAST LOWER MICHIGAN

CITY           SKY/WX    TMP DP  RH WIND       PRES   REMARKS
ADRIAN         CLEAR     68  61  78 CALM      29.99R
ALMA           CLEAR     68  60  75 CALM      29.94S
ANN ARBOR      CLEAR     66  60  81 SW5       29.97R
BAD AXE        CLEAR     69  57  66 W5        29.91R
DETROIT CITY   CLEAR     79  55  43 W7        29.94R
DETROIT        CLEAR     76  58  53 SW8       29.96R
FLINT          CLEAR     74  58  57 SW7       29.94R
GROSSE ILE     CLEAR     75  57  53 W3        29.95R
HILLSDALE      CLEAR     71  58  62 CALM      30.01R
HOWELL         CLEAR     72  55  55 SW5       29.96S

CITY           SKY/WX    TMP DP  RH WIND       PRES   REMARKS
JACKSON        CLEAR     70  59  68 SW6       29.98S
LAMBERTVILLE   CLEAR     71  59  66 CALM      29.99R
LANSING        CLEAR     73  58  59 SW5       29.96S
LAPEER         NOT AVBL
MASON          CLEAR     71  57  62 CALM      29.97R HAZE
MONROE         CLEAR     72  59  62 W3        29.96R
MT. CLEMENS    CLEAR     78  58  50 W9        29.92R
PONTIAC        CLEAR     75  58  55 W7        29.95R
PORT HOPE        N/A     71  63  75 E6        29.90R
PORT HURON     CLEAR     70  57  64 CALM      29.92R
TRI CITIES     CLEAR     73  58  59 SW5       29.93R
YPSILANTI      CLEAR     74  59  59 W8        29.96R
$$
MIZ043>046-050>051-056>058-064>065-071>073-077>080-310300-
SOUTHWEST LOWER MICHIGAN

CITY           SKY/WX    TMP DP  RH WIND       PRES   REMARKS
BATTLE CREEK   CLEAR     73  58  59 SW5       29.99R
BENTON HARBOR  CLEAR     72  60  66 SW6       29.98S
BIG RAPIDS     CLEAR     71  55  57 W3        29.94R
COLDWATER      CLEAR     68  58  69 SW3       30.00R
HOLLAND        CLEAR     70  62  76 SW3       29.97R
GRAND RAPIDS   PTCLDY    75  58  55 SW5       29.96R
KALAMAZOO      CLEAR     72  58  61 W6        29.98S
MARSHALL       CLEAR     69  59  71 CALM      29.98S
MUSKEGON       PTCLDY    75  58  55 W7        29.94S
$$
MIZ016>042-310300-
NORTHERN LOWER MICHIGAN

CITY           SKY/WX    TMP DP  RH WIND       PRES   REMARKS
ALPENA         CLEAR     69  54  58 CALM      29.89R
BEAVER ISLAND  PTCLDY    66  57  72 S3        29.88S
BELLAIRE       MOCLDY    65  58  76 CALM      29.89S
CADILLAC       MOCLDY    70  55  58 W3        29.93S
CHARLEVOIX     PTCLDY    67  59  77 CALM      29.92R
FRANKFORT      MOCLDY    69  63  81 CALM      29.92R
GAYLORD        PTCLDY    68  56  65 CALM      29.91S
GRAYLING       CLEAR     64  51  64 CALM      29.92F
HARBOR SPRINGS PTCLDY    66  55  69 CALM      29.88S
HOUGHTON LAKE  CLEAR     67  54  63 CALM      29.92S
MANISTEE       PTCLDY    72  57  60 NW8       29.92R
OSCODA         CLEAR     70  61  73 E7        29.89R
PELLSTON       PTCLDY    63  54  72 CALM      29.88S
TRAVERSE CITY  MOCLDY    74  53  48 CALM      29.88S
$$
MIZ007>008-015-310300-
EASTERN UPPER MICHIGAN

CITY           SKY/WX    TMP DP  RH WIND       PRES   REMARKS
KINROSS        CLEAR     66  54  63 CALM      29.85F
MACKINAC ISLAN MOCLDY    66  52  61 CALM      29.87S
$$
MIZ004>006-011>014-085-310300-
CENTRAL UPPER MICHIGAN

CITY           SKY/WX    TMP DP  RH WIND       PRES   REMARKS
MANISTIQUE     CLEAR     66  59  77 CALM      29.86S
ESCANABA       CLEAR     72  54  53 W7        29.88R
MENOMINEE      CLEAR     64  59  82 CALM      29.91S
SAWYER-GWINN   CLEAR     72  52  49 W6        29.89S
$$
MIZ001>003-009>011-084-310300-
WESTERN UPPER MICHIGAN

CITY           SKY/WX    TMP DP  RH WIND       PRES   REMARKS
IRON MOUNTAIN  CLEAR     67  58  72 SW5       29.91S
HOUGHTON       CLEAR     65  55  70 W13       29.85S
COPPER HARBOR    N/A     69  53  56 VRB3      29.81S
IRONWOOD       CLEAR     68  54  60 W6        29.89R
$$

ABBREVIATIONS USED IN REMARKS
   TC - TEMPERATURE IN CELSIUS
  WCI - WIND CHILL INDEX
   HX - HEAT INDEX
  VSB - VISIBILITY




USA.gov is the U.S. government's official web portal to all federal, state and local government web resources and services.